• En España
  • Lista de países
  • Para 7 días
  • Temperatura del agua
  • Mapa Satelital
  • El tiempo en el mapa
  • Informadores
  • user-avatar
    Iniciar sesión

    Tiempo cada hora Batina

    Hoy, 14 Agosto, Martes

    Tiempo Temperatura Precipitaciones Viento Presión Humedad
    00:00 +27°C° 0 mm 1 mps 672 mmHg 40%
    01:00 +26°C° 0 mm 1 mps 672 mmHg 42%
    02:00 +26°C° 0 mm 1 mps 672 mmHg 44%
    03:00 +25°C° 0 mm 1 mps 672 mmHg 46%
    04:00 +25°C° 0 mm 1 mps 672 mmHg 45%
    05:00 +26°C° 0 mm 1 mps 672 mmHg 44%
    06:00 +26°C° 0 mm 1 mps 672 mmHg 43%
    07:00 +27°C° 0 mm 2 mps 673 mmHg 39%
    08:00 +29°C° 0 mm 2 mps 673 mmHg 34%
    09:00 +30°C° 0 mm 3 mps 674 mmHg 30%
    10:00 +31°C° 0 mm 3 mps 674 mmHg 27%
    11:00 +33°C° 0 mm 4 mps 674 mmHg 25%
    12:00 +34°C° 0 mm 5 mps 674 mmHg 23%
    13:00 +34°C° 0 mm 5 mps 674 mmHg 23%
    14:00 +34°C° 0 mm 5 mps 674 mmHg 22%
    15:00 +34°C° 0 mm 5 mps 674 mmHg 22%
    16:00 +33°C° 0 mm 5 mps 674 mmHg 23%
    17:00 +33°C° 0 mm 5 mps 673 mmHg 25%
    18:00 +32°C° 0 mm 5 mps 673 mmHg 27%
    19:00 +30°C° 0 mm 4 mps 673 mmHg 32%
    20:00 +28°C° 0 mm 4 mps 673 mmHg 38%
    21:00 +27°C° 0 mm 4 mps 674 mmHg 44%
    22:00 +26°C° 0 mm 3 mps 673 mmHg 47%
    23:00 +26°C° 0 mm 3 mps 673 mmHg 49%

    Mañana, 15 Agosto, Miércoles

    Tiempo Temperatura Precipitaciones Viento Presión Humedad
    00:00 +25°C° 0 mm 3 mps 673 mmHg 52%
    01:00 +25°C° 0 mm 3 mps 673 mmHg 54%
    02:00 +24°C° 0 mm 2 mps 673 mmHg 56%
    03:00 +24°C° 0 mm 2 mps 672 mmHg 58%
    04:00 +23°C° 0 mm 2 mps 672 mmHg 59%
    05:00 +23°C° 0 mm 2 mps 672 mmHg 60%
    06:00 +23°C° 0 mm 2 mps 673 mmHg 62%
    07:00 +24°C° 0 mm 2 mps 673 mmHg 56%
    08:00 +25°C° 0 mm 2 mps 673 mmHg 49%
    09:00 +27°C° 0 mm 1 mps 674 mmHg 43%
    10:00 +28°C° 0 mm 2 mps 674 mmHg 38%
    11:00 +29°C° 0 mm 2 mps 674 mmHg 34%
    12:00 +30°C° 0 mm 2 mps 674 mmHg 29%
    13:00 +31°C° 0 mm 3 mps 674 mmHg 27%
    14:00 +31°C° 0 mm 3 mps 674 mmHg 26%
    15:00 +32°C° 0 mm 4 mps 674 mmHg 24%
    16:00 +32°C° 0 mm 4 mps 674 mmHg 27%
    17:00 +30°C° 0 mm 5 mps 673 mmHg 31%
    18:00 +29°C° 0 mm 5 mps 673 mmHg 34%
    19:00 +28°C° 0 mm 5 mps 673 mmHg 40%
    20:00 +27°C° 0 mm 4 mps 673 mmHg 46%
    21:00 +26°C° 0 mm 4 mps 673 mmHg 52%
    22:00 +25°C° 0 mm 3 mps 673 mmHg 54%
    23:00 +25°C° 0 mm 3 mps 673 mmHg 56%

    Pasado mañana, 16 Agosto, Jueves

    Tiempo Temperatura Precipitaciones Viento Presión Humedad
    00:00 +24°C° 0 mm 3 mps 673 mmHg 58%
    01:00 +24°C° 0 mm 2 mps 672 mmHg 59%
    02:00 +23°C° 0 mm 2 mps 672 mmHg 60%
    03:00 +23°C° 0 mm 1 mps 672 mmHg 60%
    04:00 +23°C° 0 mm 1 mps 672 mmHg 60%
    05:00 +23°C° 0 mm 1 mps 672 mmHg 59%
    06:00 +23°C° 0 mm 1 mps 672 mmHg 58%
    07:00 +24°C° 0 mm 1 mps 673 mmHg 54%
    08:00 +26°C° 0 mm 2 mps 673 mmHg 49%
    09:00 +27°C° 0 mm 2 mps 674 mmHg 45%
    10:00 +28°C° 0 mm 3 mps 674 mmHg 40%
    11:00 +29°C° 0 mm 3 mps 674 mmHg 36%
    12:00 +32°C° 0 mm 4 mps 674 mmHg 31%
    13:00 +30°C° 0 mm 5 mps 673 mmHg 33%
    14:00 +30°C° 0 mm 5 mps 673 mmHg 35%
    15:00 +29°C° 0 mm 6 mps 673 mmHg 37%
    16:00 +28°C° 0,3 mm 5 mps 673 mmHg 39%
    17:00 +28°C° 0,3 mm 4 mps 672 mmHg 42%
    18:00 +27°C° 0,3 mm 3 mps 672 mmHg 45%
    19:00 +26°C° 0,5 mm 3 mps 673 mmHg 48%
    20:00 +26°C° 0,5 mm 2 mps 673 mmHg 50%
    21:00 +25°C° 0,5 mm 2 mps 673 mmHg 53%
    22:00 +25°C° 0,1 mm 2 mps 673 mmHg 53%
    23:00 +25°C° 0,1 mm 1 mps 673 mmHg 54%

    17 Agosto, Viernes

    Tiempo Temperatura Precipitaciones Viento Presión Humedad
    00:00 +24°C° 0,1 mm 1 mps 672 mmHg 55%
    01:00 +24°C° 0 mm 1 mps 672 mmHg 56%
    02:00 +22°C° 0 mm 0 mps 672 mmHg 57%
    03:00 +21°C° 0 mm 0 mps 672 mmHg 58%
    04:00 +21°C° 0 mm 0 mps 672 mmHg 57%
    05:00 +24°C° 0 mm 1 mps 672 mmHg 55%
    06:00 +24°C° 0 mm 1 mps 673 mmHg 53%
    07:00 +25°C° 0 mm 1 mps 673 mmHg 48%
    08:00 +26°C° 0 mm 1 mps 674 mmHg 43%
    09:00 +27°C° 0 mm 1 mps 674 mmHg 38%
    10:00 +28°C° 0 mm 2 mps 674 mmHg 35%
    11:00 +29°C° 0 mm 2 mps 674 mmHg 32%
    12:00 +30°C° 0 mm 2 mps 674 mmHg 29%
    13:00 +30°C° 0 mm 2 mps 674 mmHg 28%
    14:00 +31°C° 0 mm 3 mps 674 mmHg 27%
    15:00 +31°C° 0 mm 3 mps 674 mmHg 26%
    16:00 +30°C° 0 mm 3 mps 674 mmHg 28%
    17:00 +30°C° 0 mm 3 mps 674 mmHg 30%
    18:00 +29°C° 0 mm 4 mps 674 mmHg 32%
    19:00 +29°C° 0 mm 3 mps 674 mmHg 37%
    20:00 +28°C° 0 mm 3 mps 674 mmHg 42%
    21:00 +27°C° 0 mm 3 mps 674 mmHg 46%
    22:00 +26°C° 0,2 mm 3 mps 674 mmHg 50%
    23:00 +26°C° 0,2 mm 3 mps 674 mmHg 53%

    18 Agosto, Sábado

    Tiempo Temperatura Precipitaciones Viento Presión Humedad
    00:00 +25°C° 0,2 mm 2 mps 674 mmHg 56%
    01:00 +25°C° 0 mm 2 mps 674 mmHg 58%
    02:00 +24°C° 0 mm 2 mps 673 mmHg 59%
    03:00 +24°C° 0 mm 2 mps 673 mmHg 61%
    04:00 +24°C° 0 mm 2 mps 673 mmHg 61%
    05:00 +24°C° 0 mm 2 mps 673 mmHg 62%
    06:00 +24°C° 0 mm 2 mps 674 mmHg 62%
    07:00 +25°C° 0 mm 2 mps 674 mmHg 56%
    08:00 +26°C° 0 mm 2 mps 675 mmHg 50%
    09:00 +27°C° 0 mm 1 mps 675 mmHg 44%
    10:00 +28°C° 0 mm 2 mps 675 mmHg 40%
    11:00 +29°C° 0 mm 3 mps 676 mmHg 37%
    12:00 +30°C° 0 mm 3 mps 676 mmHg 33%
    13:00 +30°C° 0,1 mm 3 mps 675 mmHg 34%
    14:00 +30°C° 0,1 mm 3 mps 675 mmHg 35%
    15:00 +30°C° 0,1 mm 3 mps 675 mmHg 36%
    16:00 +29°C° 0,4 mm 3 mps 675 mmHg 38%
    17:00 +29°C° 0,4 mm 3 mps 674 mmHg 41%
    18:00 +28°C° 0,4 mm 4 mps 674 mmHg 44%
    19:00 +27°C° 1 mm 3 mps 675 mmHg 48%
    20:00 +26°C° 1 mm 3 mps 675 mmHg 53%
    21:00 +25°C° 1 mm 3 mps 675 mmHg 58%
    22:00 +25°C° 0,4 mm 3 mps 675 mmHg 59%
    23:00 +24°C° 0,4 mm 3 mps 674 mmHg 61%

    19 Agosto, Domingo

    Tiempo Temperatura Precipitaciones Viento Presión Humedad
    00:00 +24°C° 0,4 mm 2 mps 674 mmHg 63%
    01:00 +24°C° 0,1 mm 2 mps 674 mmHg 63%
    02:00 +24°C° 0,1 mm 1 mps 674 mmHg 63%
    03:00 +23°C° 0,1 mm 1 mps 674 mmHg 64%
    04:00 +23°C° 0,3 mm 1 mps 674 mmHg 63%
    05:00 +24°C° 0,3 mm 1 mps 674 mmHg 62%
    06:00 +24°C° 0,3 mm 2 mps 674 mmHg 62%
    07:00 +24°C° 0,1 mm 1 mps 674 mmHg 58%
    08:00 +25°C° 0,1 mm 1 mps 675 mmHg 54%
    09:00 +26°C° 0,1 mm 1 mps 675 mmHg 51%
    10:00 +27°C° 0,2 mm 2 mps 675 mmHg 49%
    11:00 +27°C° 0,2 mm 3 mps 675 mmHg 48%
    12:00 +28°C° 0,2 mm 4 mps 675 mmHg 46%
    13:00 +28°C° 0,1 mm 3 mps 675 mmHg 45%
    14:00 +28°C° 0,1 mm 3 mps 675 mmHg 43%
    15:00 +29°C° 0,1 mm 3 mps 674 mmHg 42%
    16:00 +28°C° 0,1 mm 3 mps 674 mmHg 42%
    17:00 +28°C° 0,1 mm 3 mps 674 mmHg 43%
    18:00 +28°C° 0,1 mm 3 mps 674 mmHg 44%
    19:00 +27°C° 0 mm 3 mps 674 mmHg 48%
    20:00 +26°C° 0 mm 3 mps 674 mmHg 51%
    21:00 +26°C° 0 mm 2 mps 674 mmHg 55%
    22:00 +25°C° 0 mm 2 mps 674 mmHg 57%
    23:00 +25°C° 0 mm 2 mps 674 mmHg 59%
    Mostrar más